{"data":{"norad_id":56048,"epoch":"2026-05-25T05:23:18.210912Z","epoch_age_seconds":62470,"freshness":"FRESH","line1":"1 56048U 23043C   26145.22451633  .00000040  00000+0  69846-4 0  9999","line2":"2 56048  87.9106 233.3325 0002476 113.3660 246.7732 13.16593194155943","mean_motion":13.16593194,"eccentricity":0.0002476,"inclination_deg":87.9106,"raan_deg":233.3325,"arg_perigee_deg":113.366,"mean_anomaly_deg":246.7732,"bstar":6.9846e-5,"rev_number":15594,"period_min":109.37319185322,"perigee_km":1195.8849525962,"apogee_km":1199.6365371595,"semimajor_km":7575.8977448778,"source":"CELESTRAK","updated_at":"2026-05-25T13:38:22.699975Z"}}